Year,Month,Day,Hour,Minute,Value (Times are PST for temperature in C)
2008,05,16,00,00,10.90
2008,05,16,00,01,10.90
2008,05,16,00,02,10.90
2008,05,16,00,03,10.80
2008,05,16,00,04,10.80
2008,05,16,00,05,10.80
2008,05,16,00,06,10.80
2008,05,16,00,07,10.70
2008,05,16,00,08,10.70
2008,05,16,00,09,10.70
2008,05,16,00,10,10.60
2008,05,16,00,11,10.60
2008,05,16,00,12,10.60
2008,05,16,00,13,10.60
2008,05,16,00,14,10.60
2008,05,16,00,15,10.60
2008,05,16,00,16,10.60
2008,05,16,00,17,10.50
2008,05,16,00,18,10.40
2008,05,16,00,19,10.40
2008,05,16,00,20,10.40
2008,05,16,00,21,10.40
2008,05,16,00,22,10.40
2008,05,16,00,23,10.40
2008,05,16,00,24,10.40
2008,05,16,00,25,10.40
2008,05,16,00,26,10.40
2008,05,16,00,27,10.40
2008,05,16,00,28,10.40
2008,05,16,00,29,10.40
2008,05,16,00,30,10.40
2008,05,16,00,31,10.40
2008,05,16,00,32,10.40
2008,05,16,00,33,10.40
2008,05,16,00,34,10.40
2008,05,16,00,35,10.30
2008,05,16,00,36,10.30
2008,05,16,00,37,10.30
2008,05,16,00,38,10.30
2008,05,16,00,39,10.30
2008,05,16,00,40,10.30
2008,05,16,00,41,10.30
2008,05,16,00,42,10.20
2008,05,16,00,43,10.20
2008,05,16,00,44,10.20
2008,05,16,00,45,10.20
2008,05,16,00,46,10.20
2008,05,16,00,47,10.20
2008,05,16,00,48,10.20
2008,05,16,00,49,10.20
2008,05,16,00,50,10.10
2008,05,16,00,51,10.10
2008,05,16,00,52,10.10
2008,05,16,00,53,10.10
2008,05,16,00,54,10.10
2008,05,16,00,55,10.10
2008,05,16,00,56,10.10
2008,05,16,00,57,9.90
2008,05,16,00,58,9.90
2008,05,16,00,59,9.90
2008,05,16,01,00,9.90
2008,05,16,01,01,9.90
2008,05,16,01,02,9.90
2008,05,16,01,03,9.90
2008,05,16,01,04,9.90
2008,05,16,01,05,9.90
2008,05,16,01,06,9.90
2008,05,16,01,07,9.90
2008,05,16,01,08,9.90
2008,05,16,01,09,9.90
2008,05,16,01,10,9.90
2008,05,16,01,11,9.90
2008,05,16,01,12,9.90
2008,05,16,01,13,9.90
2008,05,16,01,14,9.90
2008,05,16,01,15,9.90
2008,05,16,01,16,9.90
2008,05,16,01,17,9.90
2008,05,16,01,18,9.90
2008,05,16,01,19,9.90
2008,05,16,01,20,9.80
2008,05,16,01,21,9.80
2008,05,16,01,22,9.80
2008,05,16,01,23,9.80
2008,05,16,01,24,9.80
2008,05,16,01,25,9.80
2008,05,16,01,26,9.80
2008,05,16,01,27,9.70
2008,05,16,01,28,9.70
2008,05,16,01,29,9.70
2008,05,16,01,30,9.70
2008,05,16,01,31,9.70
2008,05,16,01,32,9.70
2008,05,16,01,33,9.70
2008,05,16,01,34,9.70
2008,05,16,01,35,9.70
2008,05,16,01,36,9.70
2008,05,16,01,37,9.70
2008,05,16,01,38,9.70
2008,05,16,01,39,9.70
2008,05,16,01,40,9.70
2008,05,16,01,41,9.70
2008,05,16,01,42,9.70
2008,05,16,01,43,9.70
2008,05,16,01,44,9.70
2008,05,16,01,45,9.60
2008,05,16,01,46,9.60
2008,05,16,01,47,9.60
2008,05,16,01,48,9.60
2008,05,16,01,49,9.60
2008,05,16,01,50,9.60
2008,05,16,01,51,9.50
2008,05,16,01,52,9.50
2008,05,16,01,53,9.50
2008,05,16,01,54,9.50
2008,05,16,01,55,9.50
2008,05,16,01,56,9.50
2008,05,16,01,57,9.50
2008,05,16,01,58,9.50
2008,05,16,01,59,9.50
2008,05,16,02,00,9.50
2008,05,16,02,01,9.50
2008,05,16,02,02,9.40
2008,05,16,02,03,9.40
2008,05,16,02,04,9.40
2008,05,16,02,05,9.40
2008,05,16,02,06,9.40
2008,05,16,02,07,9.30
2008,05,16,02,08,9.30
2008,05,16,02,09,9.30
2008,05,16,02,10,9.30
2008,05,16,02,11,9.30
2008,05,16,02,12,9.30
2008,05,16,02,13,9.30
2008,05,16,02,14,9.30
2008,05,16,02,15,9.40
2008,05,16,02,16,9.40
2008,05,16,02,17,9.40
2008,05,16,02,18,9.40
2008,05,16,02,19,9.40
2008,05,16,02,20,9.40
2008,05,16,02,21,9.40
2008,05,16,02,22,9.40
2008,05,16,02,23,9.30
2008,05,16,02,24,9.30
2008,05,16,02,25,9.30
2008,05,16,02,26,9.30
2008,05,16,02,27,9.20
2008,05,16,02,28,9.20
2008,05,16,02,29,9.20
2008,05,16,02,30,9.20
2008,05,16,02,31,9.20
2008,05,16,02,32,9.20
2008,05,16,02,33,9.20
2008,05,16,02,34,9.20
2008,05,16,02,35,9.20
2008,05,16,02,36,9.10
2008,05,16,02,37,9.10
2008,05,16,02,38,9.10
2008,05,16,02,39,9.10
2008,05,16,02,40,9.10
2008,05,16,02,41,9.10
2008,05,16,02,42,9.10
2008,05,16,02,43,9.10
2008,05,16,02,44,9.10
2008,05,16,02,45,9.10
2008,05,16,02,46,9.10
2008,05,16,02,47,9.10
2008,05,16,02,48,9.10
2008,05,16,02,49,9.10
2008,05,16,02,50,9.10
2008,05,16,02,51,9.10
2008,05,16,02,52,9.10
2008,05,16,02,53,9.10
2008,05,16,02,54,9.10
2008,05,16,02,55,9.10
2008,05,16,02,56,9.10
2008,05,16,02,57,9.10
2008,05,16,02,58,9.10
2008,05,16,02,59,9.00
2008,05,16,03,00,9.00
2008,05,16,03,01,9.00
2008,05,16,03,02,9.00
2008,05,16,03,03,9.00
2008,05,16,03,04,9.00
2008,05,16,03,05,9.00
2008,05,16,03,06,9.00
2008,05,16,03,07,9.00
2008,05,16,03,08,9.00
2008,05,16,03,09,9.00
2008,05,16,03,10,9.00
2008,05,16,03,11,8.90
2008,05,16,03,12,8.90
2008,05,16,03,13,8.90
2008,05,16,03,14,8.90
2008,05,16,03,15,8.90
2008,05,16,03,16,8.90
2008,05,16,03,17,8.90
2008,05,16,03,18,8.90
2008,05,16,03,19,8.90
2008,05,16,03,20,8.80
2008,05,16,03,21,8.80
2008,05,16,03,22,8.80
2008,05,16,03,23,8.80
2008,05,16,03,24,8.80
2008,05,16,03,25,8.80
2008,05,16,03,26,8.80
2008,05,16,03,27,8.80
2008,05,16,03,28,8.80
2008,05,16,03,29,8.80
2008,05,16,03,30,8.80
2008,05,16,03,31,8.80
2008,05,16,03,32,8.80
2008,05,16,03,33,8.80
2008,05,16,03,34,8.80
2008,05,16,03,35,8.90
2008,05,16,03,36,8.90
2008,05,16,03,37,8.90
2008,05,16,03,38,8.90
2008,05,16,03,39,8.90
2008,05,16,03,40,9.00
2008,05,16,03,41,9.00
2008,05,16,03,42,9.10
2008,05,16,03,43,9.10
2008,05,16,03,44,9.10
2008,05,16,03,45,9.20
2008,05,16,03,46,9.20
2008,05,16,03,47,9.20
2008,05,16,03,48,9.20
2008,05,16,03,49,9.20
2008,05,16,03,50,9.20
2008,05,16,03,51,9.20
2008,05,16,03,52,9.20
2008,05,16,03,53,9.20
2008,05,16,03,54,9.20
2008,05,16,03,55,9.20
2008,05,16,03,56,9.20
2008,05,16,03,57,9.20
2008,05,16,03,58,9.20
2008,05,16,03,59,9.20
2008,05,16,04,00,9.20
2008,05,16,04,01,9.20
2008,05,16,04,02,9.20
2008,05,16,04,03,9.10
2008,05,16,04,04,9.10
2008,05,16,04,05,9.10
2008,05,16,04,06,9.10
2008,05,16,04,07,9.10
2008,05,16,04,08,9.10
2008,05,16,04,09,9.10
2008,05,16,04,10,9.10
2008,05,16,04,11,9.00
2008,05,16,04,12,9.00
2008,05,16,04,13,9.10
2008,05,16,04,14,9.10
2008,05,16,04,15,9.10
2008,05,16,04,16,9.10
2008,05,16,04,17,9.10
2008,05,16,04,18,9.20
2008,05,16,04,19,9.20
2008,05,16,04,20,9.20
2008,05,16,04,21,9.20
2008,05,16,04,22,9.20
2008,05,16,04,23,9.20
2008,05,16,04,24,9.20
2008,05,16,04,25,9.20
2008,05,16,04,26,9.20
2008,05,16,04,27,9.20
2008,05,16,04,28,9.20
2008,05,16,04,29,9.20
2008,05,16,04,30,9.10
2008,05,16,04,31,9.10
2008,05,16,04,32,9.10
2008,05,16,04,33,9.10
2008,05,16,04,34,9.10
2008,05,16,04,35,9.10
2008,05,16,04,36,9.00
2008,05,16,04,37,9.00
2008,05,16,04,38,9.00
2008,05,16,04,39,9.00
2008,05,16,04,40,9.00
2008,05,16,04,41,9.00
2008,05,16,04,42,9.00
2008,05,16,04,43,9.00
2008,05,16,04,44,8.90
2008,05,16,04,45,8.90
2008,05,16,04,46,8.90
2008,05,16,04,47,8.90
2008,05,16,04,48,8.90
2008,05,16,04,49,8.90
2008,05,16,04,50,8.90
2008,05,16,04,51,8.90
2008,05,16,04,52,8.90
2008,05,16,04,53,8.90
2008,05,16,04,54,8.90
2008,05,16,04,55,8.90
2008,05,16,04,56,8.90
2008,05,16,04,57,8.90
2008,05,16,04,58,8.90
2008,05,16,04,59,8.90
2008,05,16,05,00,8.90
2008,05,16,05,01,8.90
2008,05,16,05,02,8.90
2008,05,16,05,03,8.90
2008,05,16,05,04,8.90
2008,05,16,05,05,8.90
2008,05,16,05,06,8.90
2008,05,16,05,07,8.90
2008,05,16,05,08,8.90
2008,05,16,05,09,8.90
2008,05,16,05,10,8.90
2008,05,16,05,11,8.90
2008,05,16,05,12,8.90
2008,05,16,05,13,8.90
2008,05,16,05,14,8.80
2008,05,16,05,15,8.80
2008,05,16,05,16,8.80
2008,05,16,05,17,8.80
2008,05,16,05,18,8.80
2008,05,16,05,19,8.80
2008,05,16,05,20,8.80
2008,05,16,05,21,8.80
2008,05,16,05,22,8.80
2008,05,16,05,23,8.80
2008,05,16,05,24,8.80
2008,05,16,05,25,8.80
2008,05,16,05,26,8.80
2008,05,16,05,27,8.80
2008,05,16,05,28,8.80
2008,05,16,05,29,8.80
2008,05,16,05,30,8.80
2008,05,16,05,31,8.80
2008,05,16,05,32,8.80
2008,05,16,05,33,8.80
2008,05,16,05,34,8.80
2008,05,16,05,35,8.80
2008,05,16,05,36,8.80
2008,05,16,05,37,8.80
2008,05,16,05,38,8.80
2008,05,16,05,39,8.90
2008,05,16,05,40,8.80
2008,05,16,05,41,8.80
2008,05,16,05,42,8.80
2008,05,16,05,43,8.80
2008,05,16,05,44,8.80
2008,05,16,05,45,8.80
2008,05,16,05,46,8.80
2008,05,16,05,47,8.70
2008,05,16,05,48,8.70
2008,05,16,05,49,8.70
2008,05,16,05,50,8.70
2008,05,16,05,51,8.70
2008,05,16,05,52,8.70
2008,05,16,05,53,8.70
2008,05,16,05,54,8.70
2008,05,16,05,55,8.70
2008,05,16,05,56,8.70
2008,05,16,05,57,8.70
2008,05,16,05,58,8.70
2008,05,16,05,59,8.80
2008,05,16,06,00,8.80
2008,05,16,06,01,8.80
2008,05,16,06,02,8.80
2008,05,16,06,03,8.90
2008,05,16,06,04,8.90
2008,05,16,06,05,8.90
2008,05,16,06,06,9.00
2008,05,16,06,07,9.00
2008,05,16,06,08,9.00
2008,05,16,06,09,9.00
2008,05,16,06,10,9.10
2008,05,16,06,11,9.10
2008,05,16,06,12,9.20
2008,05,16,06,13,9.20
2008,05,16,06,14,9.20
2008,05,16,06,15,9.20
2008,05,16,06,16,9.20
2008,05,16,06,17,9.20
2008,05,16,06,18,9.30
2008,05,16,06,19,9.40
2008,05,16,06,20,9.40
2008,05,16,06,21,9.50
2008,05,16,06,22,9.50
2008,05,16,06,23,9.60
2008,05,16,06,24,9.60
2008,05,16,06,25,9.70
2008,05,16,06,26,9.70
2008,05,16,06,27,9.70
2008,05,16,06,28,9.70
2008,05,16,06,29,9.80
2008,05,16,06,30,9.80
2008,05,16,06,31,9.90
2008,05,16,06,32,9.90
2008,05,16,06,33,9.90
2008,05,16,06,34,10.10
2008,05,16,06,35,10.10
2008,05,16,06,36,10.20
2008,05,16,06,37,10.20
2008,05,16,06,38,10.20
2008,05,16,06,39,10.30
2008,05,16,06,40,10.40
2008,05,16,06,41,10.40
2008,05,16,06,42,10.60
2008,05,16,06,43,10.60
2008,05,16,06,44,10.70
2008,05,16,06,45,10.70
2008,05,16,06,46,10.80
2008,05,16,06,47,10.80
2008,05,16,06,48,10.90
2008,05,16,06,49,10.90
2008,05,16,06,50,11.00
2008,05,16,06,51,11.10
2008,05,16,06,52,11.10
2008,05,16,06,53,11.10
2008,05,16,06,54,11.20
2008,05,16,06,55,11.30
2008,05,16,06,56,11.30
2008,05,16,06,57,11.30
2008,05,16,06,58,11.40
2008,05,16,06,59,11.40
2008,05,16,07,00,11.40
2008,05,16,07,01,11.50
2008,05,16,07,02,11.60
2008,05,16,07,03,11.70
2008,05,16,07,04,11.80
2008,05,16,07,05,11.80
2008,05,16,07,06,11.90
2008,05,16,07,07,12.00
2008,05,16,07,08,12.20
2008,05,16,07,09,12.30
2008,05,16,07,10,12.40
2008,05,16,07,11,12.50
2008,05,16,07,12,12.60
2008,05,16,07,13,12.70
2008,05,16,07,14,12.80
2008,05,16,07,15,12.90
2008,05,16,07,16,13.00
2008,05,16,07,17,13.00
2008,05,16,07,18,13.10
2008,05,16,07,19,13.10
2008,05,16,07,20,13.20
2008,05,16,07,21,13.30
2008,05,16,07,22,13.30
2008,05,16,07,23,13.30
2008,05,16,07,24,13.40
2008,05,16,07,25,13.50
2008,05,16,07,26,13.50
2008,05,16,07,27,13.60
2008,05,16,07,28,13.60
2008,05,16,07,29,13.70
2008,05,16,07,30,13.70
2008,05,16,07,31,13.70
2008,05,16,07,32,13.80
2008,05,16,07,33,13.90
2008,05,16,07,34,14.00
2008,05,16,07,35,14.10
2008,05,16,07,36,14.20
2008,05,16,07,37,14.30
2008,05,16,07,38,14.40
2008,05,16,07,39,14.50
2008,05,16,07,40,14.60
2008,05,16,07,41,14.70
2008,05,16,07,42,14.80
2008,05,16,07,43,14.90
2008,05,16,07,44,14.90
2008,05,16,07,45,15.00
2008,05,16,07,46,15.10
2008,05,16,07,47,15.10
2008,05,16,07,48,15.20
2008,05,16,07,49,15.20
2008,05,16,07,50,15.30
2008,05,16,07,51,15.30
2008,05,16,07,52,15.30
2008,05,16,07,53,15.40
2008,05,16,07,54,15.40
2008,05,16,07,55,15.50
2008,05,16,07,56,15.50
2008,05,16,07,57,15.60
2008,05,16,07,58,15.60
2008,05,16,07,59,15.70
2008,05,16,08,00,15.80
2008,05,16,08,01,15.80
2008,05,16,08,02,15.90
2008,05,16,08,03,16.00
2008,05,16,08,04,16.10
2008,05,16,08,05,16.10
2008,05,16,08,06,16.20
2008,05,16,08,07,16.30
2008,05,16,08,08,16.30
2008,05,16,08,09,16.40
2008,05,16,08,10,16.40
2008,05,16,08,11,16.40
2008,05,16,08,12,16.40
2008,05,16,08,13,16.40
2008,05,16,08,14,16.40
2008,05,16,08,15,16.50
2008,05,16,08,16,16.60
2008,05,16,08,17,16.70
2008,05,16,08,18,16.70
2008,05,16,08,19,16.70
2008,05,16,08,20,16.70
2008,05,16,08,21,16.70
2008,05,16,08,22,16.70
2008,05,16,08,23,16.70
2008,05,16,08,24,16.80
2008,05,16,08,25,16.80
2008,05,16,08,26,16.80
2008,05,16,08,27,16.80
2008,05,16,08,28,16.80
2008,05,16,08,29,16.80
2008,05,16,08,30,16.80
2008,05,16,08,31,16.80
2008,05,16,08,32,16.80
2008,05,16,08,33,16.80
2008,05,16,08,34,16.80
2008,05,16,08,35,16.90
2008,05,16,08,36,16.90
2008,05,16,08,37,17.00
2008,05,16,08,38,17.00
2008,05,16,08,39,17.00
2008,05,16,08,40,17.10
2008,05,16,08,41,17.10
2008,05,16,08,42,17.10
2008,05,16,08,43,17.10
2008,05,16,08,44,17.20
2008,05,16,08,45,17.30
2008,05,16,08,46,17.30
2008,05,16,08,47,17.30
2008,05,16,08,48,17.20
2008,05,16,08,49,17.20
2008,05,16,08,50,17.20
2008,05,16,08,51,17.20
2008,05,16,08,52,17.30
2008,05,16,08,53,17.30
2008,05,16,08,54,17.30
2008,05,16,08,55,17.30
2008,05,16,08,56,17.20
2008,05,16,08,57,17.20
2008,05,16,08,58,17.30
2008,05,16,08,59,17.30
2008,05,16,09,00,17.30
2008,05,16,09,01,17.30
2008,05,16,09,02,17.40
2008,05,16,09,03,17.40
2008,05,16,09,04,17.40
2008,05,16,09,05,17.40
2008,05,16,09,06,17.50
2008,05,16,09,07,17.50
2008,05,16,09,08,17.60
2008,05,16,09,09,17.60
2008,05,16,09,10,17.60
2008,05,16,09,11,17.70
2008,05,16,09,12,17.80
2008,05,16,09,13,17.80
2008,05,16,09,14,17.90
2008,05,16,09,15,17.90
2008,05,16,09,16,17.90
2008,05,16,09,17,18.00
2008,05,16,09,18,18.10
2008,05,16,09,19,18.10
2008,05,16,09,20,18.10
2008,05,16,09,21,18.10
2008,05,16,09,22,18.10
2008,05,16,09,23,18.20
2008,05,16,09,24,18.20
2008,05,16,09,25,18.20
2008,05,16,09,26,18.20
2008,05,16,09,27,18.20
2008,05,16,09,28,18.20
2008,05,16,09,29,18.30
2008,05,16,09,30,18.40
2008,05,16,09,31,18.40
2008,05,16,09,32,18.50
2008,05,16,09,33,18.50
2008,05,16,09,34,18.50
2008,05,16,09,35,18.60
2008,05,16,09,36,18.60
2008,05,16,09,37,18.60
2008,05,16,09,38,18.60
2008,05,16,09,39,18.60
2008,05,16,09,40,18.70
2008,05,16,09,41,18.70
2008,05,16,09,42,18.80
2008,05,16,09,43,18.80
2008,05,16,09,44,18.80
2008,05,16,09,45,18.90
2008,05,16,09,46,18.90
2008,05,16,09,47,18.90
2008,05,16,09,48,18.90
2008,05,16,09,49,19.00
2008,05,16,09,50,19.10
2008,05,16,09,51,19.10
2008,05,16,09,52,19.10
2008,05,16,09,53,19.10
2008,05,16,09,54,19.10
2008,05,16,09,55,19.10
2008,05,16,09,56,19.10
2008,05,16,09,57,19.20
2008,05,16,09,58,19.20
2008,05,16,09,59,19.30
2008,05,16,10,00,19.30
2008,05,16,10,01,19.30
2008,05,16,10,02,19.30
2008,05,16,10,03,19.30
2008,05,16,10,04,19.30
2008,05,16,10,05,19.40
2008,05,16,10,06,19.40
2008,05,16,10,07,19.40
2008,05,16,10,08,19.40
2008,05,16,10,09,19.40
2008,05,16,10,10,19.40
2008,05,16,10,11,19.50
2008,05,16,10,12,19.50
2008,05,16,10,13,19.60
2008,05,16,10,14,19.60
2008,05,16,10,15,19.60
2008,05,16,10,16,19.60
2008,05,16,10,17,19.70
2008,05,16,10,18,19.60
2008,05,16,10,19,19.60
2008,05,16,10,20,19.70
2008,05,16,10,21,19.70
2008,05,16,10,22,19.70
2008,05,16,10,23,19.80
2008,05,16,10,24,19.80
2008,05,16,10,25,19.90
2008,05,16,10,26,19.90
2008,05,16,10,27,19.90
2008,05,16,10,28,19.90
2008,05,16,10,29,19.90
2008,05,16,10,30,19.90
2008,05,16,10,31,19.90
2008,05,16,10,32,19.90
2008,05,16,10,33,20.00
2008,05,16,10,34,20.10
2008,05,16,10,35,20.10
2008,05,16,10,36,20.10
2008,05,16,10,37,20.10
2008,05,16,10,38,20.10
2008,05,16,10,39,20.10
2008,05,16,10,40,20.20
2008,05,16,10,41,20.30
2008,05,16,10,42,20.30
2008,05,16,10,43,20.30
2008,05,16,10,44,20.40
2008,05,16,10,45,20.40
2008,05,16,10,46,20.40
2008,05,16,10,47,20.40
2008,05,16,10,48,20.40
2008,05,16,10,49,20.50
2008,05,16,10,50,20.60
2008,05,16,10,51,20.60
2008,05,16,10,52,20.50
2008,05,16,10,53,20.50
2008,05,16,10,54,20.50
2008,05,16,10,55,20.50
2008,05,16,10,56,20.60
2008,05,16,10,57,20.70
2008,05,16,10,58,20.70
2008,05,16,10,59,20.80
2008,05,16,11,00,20.90
2008,05,16,11,01,21.00
2008,05,16,11,02,21.00
2008,05,16,11,03,21.00
2008,05,16,11,04,21.00
2008,05,16,11,05,21.10
2008,05,16,11,06,21.20
2008,05,16,11,07,21.20
2008,05,16,11,08,21.20
2008,05,16,11,09,21.20
2008,05,16,11,10,21.20
2008,05,16,11,11,21.30
2008,05,16,11,12,21.30
2008,05,16,11,13,21.30
2008,05,16,11,14,21.30
2008,05,16,11,15,21.30
2008,05,16,11,16,21.30
2008,05,16,11,17,21.30
2008,05,16,11,18,21.40
2008,05,16,11,19,21.50
2008,05,16,11,20,21.60
2008,05,16,11,21,21.60
2008,05,16,11,22,21.60
2008,05,16,11,23,21.60
2008,05,16,11,24,21.60
2008,05,16,11,25,21.60
2008,05,16,11,26,21.60
2008,05,16,11,27,21.60
2008,05,16,11,28,21.40
2008,05,16,11,29,21.40
2008,05,16,11,30,21.40
2008,05,16,11,31,21.40
2008,05,16,11,32,21.40
2008,05,16,11,33,21.40
2008,05,16,11,34,21.50
2008,05,16,11,35,21.60
2008,05,16,11,36,21.60
2008,05,16,11,37,21.70
2008,05,16,11,38,21.70
2008,05,16,11,39,21.60
2008,05,16,11,40,21.60
2008,05,16,11,41,21.60
2008,05,16,11,42,21.60
2008,05,16,11,43,21.80
2008,05,16,11,44,21.80
2008,05,16,11,45,22.00
2008,05,16,11,46,22.10
2008,05,16,11,47,22.20
2008,05,16,11,48,22.30
2008,05,16,11,49,22.40
2008,05,16,11,50,22.50
2008,05,16,11,51,22.60
2008,05,16,11,52,22.60
2008,05,16,11,53,22.60
2008,05,16,11,54,22.60
2008,05,16,11,55,22.50
2008,05,16,11,56,22.50
2008,05,16,11,57,22.50
2008,05,16,11,58,22.60
2008,05,16,11,59,22.60
2008,05,16,12,00,22.70
2008,05,16,12,01,22.80
2008,05,16,12,02,22.80
2008,05,16,12,03,22.80
2008,05,16,12,04,22.80
2008,05,16,12,05,22.80
2008,05,16,12,06,22.70
2008,05,16,12,07,22.80
2008,05,16,12,08,22.80
2008,05,16,12,09,22.90
2008,05,16,12,10,22.90
2008,05,16,12,11,22.90
2008,05,16,12,12,23.00
2008,05,16,12,13,23.10
2008,05,16,12,14,23.20
2008,05,16,12,15,23.20
2008,05,16,12,16,23.20
2008,05,16,12,17,23.20
2008,05,16,12,18,23.20
2008,05,16,12,19,23.20
2008,05,16,12,20,23.20
2008,05,16,12,21,23.20
2008,05,16,12,22,23.20
2008,05,16,12,23,23.20
2008,05,16,12,24,23.30
2008,05,16,12,25,23.30
2008,05,16,12,26,23.30
2008,05,16,12,27,23.30
2008,05,16,12,28,23.10
2008,05,16,12,29,23.10
2008,05,16,12,30,23.10
2008,05,16,12,31,23.10
2008,05,16,12,32,23.10
2008,05,16,12,33,23.10
2008,05,16,12,34,23.20
2008,05,16,12,35,23.20
2008,05,16,12,36,23.20
2008,05,16,12,37,23.10
2008,05,16,12,38,23.00
2008,05,16,12,39,22.90
2008,05,16,12,40,22.90
2008,05,16,12,41,22.90
2008,05,16,12,42,23.00
2008,05,16,12,43,23.10
2008,05,16,12,44,23.10
2008,05,16,12,45,23.10
2008,05,16,12,46,23.10
2008,05,16,12,47,23.10
2008,05,16,12,48,23.10
2008,05,16,12,49,23.20
2008,05,16,12,50,23.20
2008,05,16,12,51,23.20
2008,05,16,12,52,23.20
2008,05,16,12,53,23.20
2008,05,16,12,54,23.10
2008,05,16,12,55,23.10
2008,05,16,12,56,23.10
2008,05,16,12,57,23.10
2008,05,16,12,58,23.20
2008,05,16,12,59,23.20
2008,05,16,13,00,23.20
2008,05,16,13,01,23.20
2008,05,16,13,02,23.20
2008,05,16,13,03,23.30
2008,05,16,13,04,23.20
2008,05,16,13,05,23.30
2008,05,16,13,06,23.30
2008,05,16,13,07,23.30
2008,05,16,13,08,23.30
2008,05,16,13,09,23.20
2008,05,16,13,10,23.20
2008,05,16,13,11,23.30
2008,05,16,13,12,23.30
2008,05,16,13,13,23.30
2008,05,16,13,14,23.30
2008,05,16,13,15,23.30
2008,05,16,13,16,23.30
2008,05,16,13,17,23.20
2008,05,16,13,18,23.10
2008,05,16,13,19,23.10
2008,05,16,13,20,23.10
2008,05,16,13,21,23.10
2008,05,16,13,22,23.30
2008,05,16,13,23,23.30
2008,05,16,13,24,23.30
2008,05,16,13,25,23.40
2008,05,16,13,26,23.40
2008,05,16,13,27,23.50
2008,05,16,13,28,23.60
2008,05,16,13,29,23.60
2008,05,16,13,30,23.60
2008,05,16,13,31,23.60
2008,05,16,13,32,23.60
2008,05,16,13,33,23.60
2008,05,16,13,34,23.60
2008,05,16,13,35,23.50
2008,05,16,13,36,23.40
2008,05,16,13,37,23.40
2008,05,16,13,38,23.40
2008,05,16,13,39,23.30
2008,05,16,13,40,23.30
2008,05,16,13,41,23.40
2008,05,16,13,42,23.40
2008,05,16,13,43,23.40
2008,05,16,13,44,23.40
2008,05,16,13,45,23.30
2008,05,16,13,46,23.30
2008,05,16,13,47,23.30
2008,05,16,13,48,23.30
2008,05,16,13,49,23.30
2008,05,16,13,50,23.30
2008,05,16,13,51,23.30
2008,05,16,13,52,23.30
2008,05,16,13,53,23.30
2008,05,16,13,54,23.30
2008,05,16,13,55,23.40
2008,05,16,13,56,23.40
2008,05,16,13,57,23.50
2008,05,16,13,58,23.60
2008,05,16,13,59,23.60
2008,05,16,14,00,23.70
2008,05,16,14,01,23.70
2008,05,16,14,02,23.80
2008,05,16,14,03,23.80
2008,05,16,14,04,23.80
2008,05,16,14,05,23.80
2008,05,16,14,06,23.80
2008,05,16,14,07,23.70
2008,05,16,14,08,23.70
2008,05,16,14,09,23.70
2008,05,16,14,10,23.70
2008,05,16,14,11,23.80
2008,05,16,14,12,23.90
2008,05,16,14,13,23.90
2008,05,16,14,14,24.10
2008,05,16,14,15,24.10
2008,05,16,14,16,24.10
2008,05,16,14,17,24.10
2008,05,16,14,18,24.10
2008,05,16,14,19,24.30
2008,05,16,14,20,24.40
2008,05,16,14,21,24.50
2008,05,16,14,22,24.60
2008,05,16,14,23,24.60
2008,05,16,14,24,24.70
2008,05,16,14,25,24.70
2008,05,16,14,26,24.70
2008,05,16,14,27,24.70
2008,05,16,14,28,24.80
2008,05,16,14,29,24.80
2008,05,16,14,30,24.80
2008,05,16,14,31,24.90
2008,05,16,14,32,24.90
2008,05,16,14,33,25.10
2008,05,16,14,34,25.20
2008,05,16,14,35,25.30
2008,05,16,14,36,25.30
2008,05,16,14,37,25.30
2008,05,16,14,38,25.30
2008,05,16,14,39,25.30
2008,05,16,14,40,25.40
2008,05,16,14,41,25.50
2008,05,16,14,42,25.60
2008,05,16,14,43,25.80
2008,05,16,14,44,25.80
2008,05,16,14,45,25.80
2008,05,16,14,46,25.80
2008,05,16,14,47,25.80
2008,05,16,14,48,25.80
2008,05,16,14,49,25.70
2008,05,16,14,50,25.70
2008,05,16,14,51,25.60
2008,05,16,14,52,25.50
2008,05,16,14,53,25.50
2008,05,16,14,54,25.50
2008,05,16,14,55,25.50
2008,05,16,14,56,25.60
2008,05,16,14,57,25.60
2008,05,16,14,58,25.60
2008,05,16,14,59,25.60
2008,05,16,15,00,25.60
2008,05,16,15,01,25.70
2008,05,16,15,02,25.70
2008,05,16,15,03,25.70
2008,05,16,15,04,25.70
2008,05,16,15,05,25.80
2008,05,16,15,06,25.80
2008,05,16,15,07,25.80
2008,05,16,15,08,25.80
2008,05,16,15,09,25.70
2008,05,16,15,10,25.70
2008,05,16,15,11,25.70
2008,05,16,15,12,25.70
2008,05,16,15,13,25.80
2008,05,16,15,14,25.90
2008,05,16,15,15,25.90
2008,05,16,15,16,25.90
2008,05,16,15,17,26.00
2008,05,16,15,18,26.10
2008,05,16,15,19,26.10
2008,05,16,15,20,26.10
2008,05,16,15,21,26.10
2008,05,16,15,22,26.10
2008,05,16,15,23,26.20
2008,05,16,15,24,26.30
2008,05,16,15,25,26.30
2008,05,16,15,26,26.40
2008,05,16,15,27,26.40
2008,05,16,15,28,26.40
2008,05,16,15,29,26.40
2008,05,16,15,30,26.40
2008,05,16,15,31,26.50
2008,05,16,15,32,26.50
2008,05,16,15,33,26.40
2008,05,16,15,34,26.50
2008,05,16,15,35,26.60
2008,05,16,15,36,26.60
2008,05,16,15,37,26.60
2008,05,16,15,38,26.60
2008,05,16,15,39,26.60
2008,05,16,15,40,26.60
2008,05,16,15,41,26.60
2008,05,16,15,42,26.50
2008,05,16,15,43,26.40
2008,05,16,15,44,26.50
2008,05,16,15,45,26.50
2008,05,16,15,46,26.60
2008,05,16,15,47,26.60
2008,05,16,15,48,26.50
2008,05,16,15,49,26.40
2008,05,16,15,50,26.40
2008,05,16,15,51,26.40
2008,05,16,15,52,26.40
2008,05,16,15,53,26.40
2008,05,16,15,54,26.40
2008,05,16,15,55,26.40
2008,05,16,15,56,26.60
2008,05,16,15,57,26.60
2008,05,16,15,58,26.60
2008,05,16,15,59,26.60
2008,05,16,16,00,26.60
2008,05,16,16,01,26.60
2008,05,16,16,02,26.60
2008,05,16,16,03,26.60
2008,05,16,16,04,26.60
2008,05,16,16,05,26.60
2008,05,16,16,06,26.60
2008,05,16,16,07,26.60
2008,05,16,16,08,26.60
2008,05,16,16,09,26.60
2008,05,16,16,10,26.60
2008,05,16,16,11,26.60
2008,05,16,16,12,26.60
2008,05,16,16,13,26.60
2008,05,16,16,14,26.60
2008,05,16,16,15,26.60
2008,05,16,16,16,26.60
2008,05,16,16,17,26.60
2008,05,16,16,18,26.60
2008,05,16,16,19,26.70
2008,05,16,16,20,26.60
2008,05,16,16,21,26.60
2008,05,16,16,22,26.60
2008,05,16,16,23,26.60
2008,05,16,16,24,26.60
2008,05,16,16,25,26.60
2008,05,16,16,26,26.60
2008,05,16,16,27,26.60
2008,05,16,16,28,26.70
2008,05,16,16,29,26.70
2008,05,16,16,30,26.70
2008,05,16,16,31,26.70
2008,05,16,16,32,26.70
2008,05,16,16,33,26.80
2008,05,16,16,34,26.80
2008,05,16,16,35,26.90
2008,05,16,16,36,26.90
2008,05,16,16,37,27.10
2008,05,16,16,38,26.90
2008,05,16,16,39,26.90
2008,05,16,16,40,26.90
2008,05,16,16,41,26.80
2008,05,16,16,42,26.80
2008,05,16,16,43,26.70
2008,05,16,16,44,26.70
2008,05,16,16,45,26.80
2008,05,16,16,46,26.80
2008,05,16,16,47,26.80
2008,05,16,16,48,26.80
2008,05,16,16,49,26.80
2008,05,16,16,50,26.80
2008,05,16,16,51,26.70
2008,05,16,16,52,26.70
2008,05,16,16,53,26.70
2008,05,16,16,54,26.80
2008,05,16,16,55,26.80
2008,05,16,16,56,26.90
2008,05,16,16,57,26.90
2008,05,16,16,58,26.90
2008,05,16,16,59,27.00
2008,05,16,17,00,26.90
2008,05,16,17,01,26.90
2008,05,16,17,02,27.00
2008,05,16,17,03,27.10
2008,05,16,17,04,27.10
2008,05,16,17,05,27.10
2008,05,16,17,06,27.10
2008,05,16,17,07,27.10
2008,05,16,17,08,27.10
2008,05,16,17,09,27.20
2008,05,16,17,10,27.20
2008,05,16,17,11,27.20
2008,05,16,17,12,27.20
2008,05,16,17,13,27.20
2008,05,16,17,14,27.20
2008,05,16,17,15,27.20
2008,05,16,17,16,27.20
2008,05,16,17,17,27.20
2008,05,16,17,18,27.20
2008,05,16,17,19,27.30
2008,05,16,17,20,27.30
2008,05,16,17,21,27.30
2008,05,16,17,22,27.30
2008,05,16,17,23,27.30
2008,05,16,17,24,27.30
2008,05,16,17,25,27.40
2008,05,16,17,26,27.40
2008,05,16,17,27,27.50
2008,05,16,17,28,27.60
2008,05,16,17,29,27.60
2008,05,16,17,30,27.60
2008,05,16,17,31,27.60
2008,05,16,17,32,27.70
2008,05,16,17,33,27.70
2008,05,16,17,34,27.70